Simultaneous Nadir Overpasses (SNOs) Predictions

Prediction of SNOs between FY3D and AQUA Satellite Orbit:

Table of predicted SNOs for the next 14.0 days since TLE Epoch: 7/26/2025
Index Date (FY3D) Time (FY3D) Lat,Lon (FY3D) SZA (FY3D ) Date (AQUA) Time (AQUA) Lat,Lon (AQUA) SZA (AQUA ) Distance(km) Time Diff (sec)
1 07/27/2025 08:51:24 -79.58,-143.96 119.32 07/27/2025 08:52:24 -79.59,-144.02 119.32 1.33 60
2 07/27/2025 09:42:03 79.39, 25.06 60.44 07/27/2025 09:41:37 79.39, 25.06 60.44 0.17 26
3 07/29/2025 18:22:07 -79.63, 72.98 118.69 07/29/2025 18:23:17 -79.63, 72.99 118.71 0.19 70
4 07/29/2025 19:12:46 79.44,-117.98 61.06 07/29/2025 19:12:30 79.44,-117.93 61.06 1.01 16
5 08/01/2025 04:43:27 79.43, 99.51 61.64 08/01/2025 04:43:21 79.44, 99.45 61.65 1.35 6
6 08/03/2025 14:14:09 79.45, -43.30 62.28 08/03/2025 14:14:12 79.45, -43.33 62.28 0.60 3
7 08/05/2025 23:44:53 79.54, 173.31 63.04 08/05/2025 23:45:04 79.53, 173.46 63.02 3.16 11
8 08/06/2025 00:35:18 -78.91, -14.28 117.74 08/06/2025 00:34:04 -78.86, -14.39 117.79 6.18 74
9 08/08/2025 09:15:31 79.44, 31.56 63.58 08/08/2025 09:15:51 79.45, 31.42 63.59 2.94 20



Historial Predications of SNOs between FY3D and AQUA
